Location: Gollag?dem
(16.8053°N, 80.8024°E)
Time: 14:08:12
(UTC+00:00)

Cosmos 2297 - Pass Details

Date: 13 August 2020
Orbit: 837 x 858 km, 71.0° (Epoch: 25 September)

Event Time Altitude Azimuth Distance (km) Brightness Sun altitude
Rises 23:44:52 0° 193° (SSW) 3,413 6.6 -9.0°
Reaches altitude 10° 23:47:19 10° 191° (SSW) 2,480 5.9 -8.4°
Maximum altitude 23:53:01 78° 106° (ESE) 876 4.0 -7.1°
Drops below altitude 10° 23:58:44 10° 20° (NNE) 2,485 6.7 -5.8°
Sets 00:01:11 0° 19° (NNE) 3,421 7.4 -5.2°
